Other Public Products
Issued by NWS Grand Forks, ND

Home | Current Version | Previous Version | Graphics & Text | Print | Product List | Glossary On
Versions: 1 2 3 4 5 6 7 8 9 10 11 12 13 14 15 16 17 18 19 20 21 22 23 24 25 26 27 28 29 30 31 32 33 34 35 36 37 38 39 40 41 42 43 44 45 46 47 48 49 50
000
FPUS83 KFGF 091510
OPUFGF
PRAIRIE TO PINES WEATHER ROUNDUP
NATIONAL WEATHER SERVICE EASTERN NORTH DAKOTA/GRAND FORKS ND
900 AM CST TUE FEB 09 2016

 **SATELLITE DATA USED TO AUGMENT SKY COVER AT AUTOMATED STATIONS**
 *****  WEATHER ACROSS EASTERN NORTH DAKOTA  *****

CITY           SKY/WX    TMP DP  RH WIND       PRES   REMARKS
GRAND FORKS    CLOUDY    11   4  73 N14       30.30S WCI  -5
GRAND FORKS AF FLURRIES  10   3  72 N12       30.29S WCI  -4
GRAND CITY NWS NOT AVBL
BUXTON           N/A     10   6  83 N13         N/A  WCI  -5
DEVILS LAKE    CLOUDY    15   9  76 CALM      30.26S
FARGO          CLOUDY    11   4  73 N12       30.28S WCI  -3
WAHPETON ARPT  CLOUDY    10   5  79 N10       30.27F WCI  -3
$$

 *****  WEATHER ACROSS CENTRAL AND WESTERN NORTH DAKOTA  *****

CITY           SKY/WX    TMP DP  RH WIND       PRES   REMARKS
JAMESTOWN      CLOUDY    17   9  70 NW7       30.24S WCI   8
BISMARCK       CLOUDY    26  11  52 SW8       30.25F WCI  18
MINOT          CLOUDY    26   9  48 SW12      30.20F WCI  16
MINOT AFB      PTCLDY    22  12  64 CALM      30.20F
GARRISON         N/A     23  11  60 SW6       30.21F WCI  16
WILLISTON      CLOUDY    31  23  72 NW6       30.22R
DICKINSON      CLOUDY    25  18  74 W3        30.16R
HETTINGER      CLOUDY    26  17  68 SE5       30.20S WCI  20
$$

 *****  OTHER OBSERVATIONS NORTHEAST NORTH DAKOTA  *****

CITY           SKY/WX    TMP DP  RH WIND       PRES   REMARKS
WALHALLA       FLURRIES   9   9 100 N13       30.32S WCI  -7
LANGDON        CLOUDY    12   5  73 N8        30.24R WCI   1
CAVALIER       LGT SNOW   9   5  85 N7        30.32S WCI  -3
GRAFTON        FLURRIES   9   3  78 N14       30.33F WCI  -8
CANDO          NOT AVBL
FORT TOTTEN      N/A     16   9  74 CALM      29.95S
ROLLA          CLOUDY    16  12  86 E7        30.23R WCI   6
RUGBY          PTSUNNY   19  14  79 CALM      30.23S
 ***** THE ABOVE OBSERVATIONS ARE NON NWS ARE NOT QUALITY
        CONTROLLED AND MAY MIS-REPORT RAIN FOR SNOW...
$$

 *****  OTHER OBSERVATIONS SOUTHEAST NORTH DAKOTA *****

CITY           SKY/WX    TMP DP  RH WIND       PRES   REMARKS
COOPERSTOWN    NOT AVBL
VALLEY CITY    CLOUDY    16   9  73 N10       30.27R WCI   3
OAKES          CLOUDY    14   9  79 NW9       30.26S WCI   2
GWINNER        CLOUDY    18  10  73 N8        30.26S WCI   7
SHEYENNE NWR     N/A     13   5  70 N6        29.95S WCI   4
BUFFALO          N/A     13   5  71 N10         N/A  WCI   0
WYNDMERE       NOT AVBL
 ***** THE ABOVE OBSERVATIONS ARE NON NWS ARE NOT QUALITY
       CONTROLLED AND MAY MIS-REPORT RAIN FOR SNOW...
$$

  *****  WEATHER ACROSS NORTHERN MINNESOTA  *****

CITY           SKY/WX    TMP DP  RH WIND       PRES   REMARKS
FLAG ISLAND    CLOUDY     1  -2  85 NW14      30.22R WCI -17
WARROAD        CLOUDY    -2  -6  84 NW7       30.24S WCI -16
ROSEAU         CLOUDY    -6 -11  77 NW5       30.26R WCI -17
HALLOCK        CLOUDY     7   0  72 N12       30.31R WCI  -9
THF RVR FALLS  NOT AVBL
HALSTAD        NOT AVBL
FOSSTON        CLOUDY     1  -2  85 NW9       30.23R WCI -14
BAUDETTE       CLOUDY    -4  -9  79 NW8       30.20R HAZE    WCI -19
WASKISH        CLOUDY    -6  -9  84 W5        30.20R WCI -17
CROOKSTON      MOSUNNY    9   3  78 N16       30.30R WCI  -9
$$
  *****  WEATHER ACROSS CENTRAL AND WEST MINNESOTA  *****

CITY           SKY/WX    TMP DP  RH WIND       PRES   REMARKS
BEMIDJI        CLOUDY    -6 -10  84 NW7       30.18R WCI -21
PARK RAPIDS    SUNNY      1  -5  75 NW10      30.16R WCI -15
WADENA         MOSUNNY    1  -4  78 NW9       30.17S WCI -14
DETROIT LAKES  CLOUDY     5   1  85 N13       30.22R WCI -12
MOORHEAD       MOSUNNY    9   5  85 N10       30.28S WCI  -6
FERGUS FALLS   CLOUDY     7   1  78 N14       30.27S WCI -10
ELBOW LAKE     CLOUDY     5   1  82 NW14G22   30.23R WCI -12
MORRIS MN      CLOUDY     7   1  78 NW18G25   30.22R WCI -12
STAPLES        SUNNY      1  -6  71 NW12      30.17R WCI -15
WHEATON        CLOUDY    10   7  85 NW12      30.29R WCI  -4
$$
  *****  WEATHER ELSEWHERE ACROSS MINNESOTA  *****

CITY           SKY/WX    TMP DP  RH WIND       PRES   REMARKS
DULUTH         PTSUNNY    0  -6  76 NW13      30.00S WCI -18
INTRNTL FALLS  CLOUDY    -4 -10  75 NW13      30.14S WCI -23
ELY            CLOUDY     0  -6  78 NW7       30.02S WCI -13
CLOQUET        CLOUDY     0  -6  78 NW15G25   30.03S WCI -20
BRAINERD       SUNNY      1  -5  75 N16       30.14R WCI -19
HIBBING        MOSUNNY   -3  -8  79 NW17      30.06S WCI -24
ALEXANDRIA     SUNNY      4  -3  73 NW13      30.17R WCI -13
SAINT CLOUD    SUNNY      4  -4  69 NW16G26   30.13S WCI -15
MINNEAPOLIS    MOSUNNY    7  -2  66 NW16G32   30.10S WCI -11
$$

  *****  WEATHER ACROSS SOUTH DAKOTA  *****

CITY           SKY/WX    TMP DP  RH WIND       PRES   REMARKS
SIOUX FALLS    MOSUNNY    8   0  69 N14       30.24R WCI  -8
BROOKINGS      PTSUNNY    6  -1  73 NW14      30.21  WCI -11
WATERTOWN      CLOUDY     8   1  73 N12       30.21S WCI  -7
HURON          SUNNY     15   7  70 N9        30.29S WCI   3
SISSETON         N/A     12   7  80 N14       30.26R WCI  -3
ABERDEEN       CLOUDY    16   8  71 NW8       30.28F WCI   5
MITCHELL       CLOUDY    18  11  74 N13       30.31R WCI   5
PIERRE         CLOUDY    23   8  52 CALM      30.29S
MOBRIDGE       CLOUDY    24  12  60 W3        30.24F
RAPID CITY     CLOUDY    27  19  72 N3        30.19F
$$

  *****  SOME WEATHER IN NEARBY STATES *****

CITY           SKY/WX    TMP DP  RH WIND       PRES   REMARKS
GLASGOW MT     CLOUDY    30  26  85 SW5       30.22F
GREAT FALLS MT CLOUDY    42  28  57 S16       30.30S
CHEYENNE WY    CLEAR     38  19  46 NW14G20   30.30F
SCOTTSBLUFF NE CLEAR     32  24  72 NW10      30.26S WCI  24
OMAHA NE       MOSUNNY   15   5  64 N25G31    30.22R WCI  -4
DES MOINES IA  MOSUNNY   11   2  67 NW21      30.12R WCI  -8
DAVENPORT IA   MOSUNNY   14   5  67 NW18      29.95R WCI  -3
CHICAGO IL     LGT SNOW  15   9  76 NW17G23   29.82R WCI  -1
EAU CLAIRE WI  MOSUNNY    4  -5  66 NW15G24   30.01R WCI -14
LA CROSSE WI   SUNNY      7  -1  70 NW18      30.01R WCI -12
$$

  *****  SOME NATIONAL WEATHER *****

CITY           SKY/WX    TMP DP  RH WIND       PRES   REMARKS
LA GUARDIA NY  CLOUDY    29  22  75 NE14      29.65F WCI  18
RALEIGH NC     CLOUDY    40  30  67 W7        29.67R
ATLANTA GA     CLOUDY    34  20  56 W13       29.85S WCI  25
NEW ORLEANS LA MOSUNNY   47  18  31 NW16      30.21R
OKLAHOMA CITY  MOSUNNY   44   9  23 NW9       30.26R
ALBUQUERQUE NM CLOUDY    33  21  61 NW7       30.43R
SALT LAKE CITY PTCLDY    25  22  88 S3        30.60S FOG
LOS ANGELES CA CLEAR     64  26  23 VRB5      30.14R
BOISE ID       PTCLDY    27  23  85 S8        30.60S WCI  19
SEATTLE WA     FOG       39  38  96 CALM      30.19S VSB 1/4
$$

*** WEATHER ACROSS MANITOBA...SASKATCHEWAN AND ONTARIO ***
                ***ONTARIO***

CITY           SKY/WX    TMP DP  RH WIND       PRES   REMARKS
GERALDTON      FLURRIES  -6 -11  77 N14       29.91S WCI -26
THUNDER BAY    PTSUNNY    1  -8  66 NW9G21    30.02R WCI -14
SIOUX LOOKOUT  FLURRIES  -2  -9  71 N6        30.09F WCI -14
TORONTO        FLURRIES  28  25  86 NE6       29.51S WCI  22
BIG TROUT LK   MOSUNNY  -20 -26  76 NW10G17   30.18S WCI -41
PICKLE LAKE    CRYSTALS  -8 -17  65 NW6       30.06F WCI -21
DRYDEN         SUNNY     -9 -13  84 N6        30.11S WCI -23
KENORA         MOSUNNY   -6  -9  84 N10G17    30.19R WCI -23
$$
                *** MANITOBA***

CITY           SKY/WX    TMP DP  RH WIND       PRES   REMARKS
BRANDON        FLURRIES  12   7  79 E12       30.28R WCI  -2
DAUPHIN        CLOUDY     5   1  85 NE2       30.34S
ISLAND LAKE    FLURRIES -24 -29  76 W8        30.36R WCI -43
PILOT MOUND      N/A     10   5  79 N7          N/A  WCI   0
THE PAS        PTCLDY   -15 -18  84 NE3       30.40F
THOMPSON       CLEAR    -29 -35  75 CALM      30.43S
WINNIPEG       MOCLDY     1  -6  71 N15       30.35R WCI -18
LYNN LAKE      CLOUDY   -27 -33  75 CALM      30.37F
CHURCHILL      CRYSTALS -26 -33  68 NW12      30.45S WCI -49
GILLAM         CLEAR    -27 -35  68 NW7       30.41R WCI -46
$$
                ***SASKATCHEWAN***

CITY           SKY/WX    TMP DP  RH WIND       PRES   REMARKS
ESTEVAN        CLOUDY    21  18  86 NE3       30.19F
KINDERSLEY     MOCLDY    30  28  93 S8        30.14F WCI  23
LLOYDMINSTER   MOCLDY    27  25  93 S6        30.09F FOG     WCI  20
PRINCE ALBERT  FLURRIES  14   7  73 SE10      30.26F WCI   1
REGINA         CLOUDY    23  21  93 W3        30.21S
YORKTON        CLOUDY    14   9  79 NE9       30.25R WCC1F1C2F2C3F3C4F4C5F5C6F6C7F7C8F8C9F9CaFaCbFbCcFcCdFdCe!


USA.gov is the U.S. government's official web portal to all federal, state and local government web resources and services.